Regional Weather Roundup
Issued by NWS

Home | Current Version | Previous Version | Graphics & Text | Print | Product List | Glossary On
Versions: 1 2 3 4 5 6 7 8 9 10 11 12 13 14 15 16 17 18 19 20 21 22 23 24 25 26 27 28 29 30 31 32 33 34 35 36 37 38 39 40 41 42 43 44 45 46 47 48 49 50
000
ASUS43 KOAX 020102
RWRNE

WEATHER ROUNDUP FOR NEBRASKA
NATIONAL WEATHER SERVICE OMAHA NE
800 PM CDT SAT AUG 01 2015

NOTES: SATELLITE DATA IS BEING USED TO AUGMENT CLOUD COVER ABOVE
       12000 FEET.
       "FAIR" INDICATES FEW OR NO CLOUDS BELOW 12,000 FEET WITH NO
       SIGNIFICANT WEATHER AND/OR OBSTRUCTIONS TO VISIBILITY.

  * THESE STATIONS DO NOT REPORT WEATHER SUCH AS RAIN...SNOW OR FOG.

NEZ001>004-019>022-054>056-020200-
NEBRASKA PANHANDLE

CITY           SKY/WX    TMP DP  RH WIND       PRES   REMARKS
SCOTTSBLUFF    MOSUNNY   79  57  46 E15       29.99R
ALLIANCE       SUNNY     81  58  45 SE8       29.97F
CHADRON        SUNNY     87  57  35 S12       29.91F
KIMBALL        MOSUNNY   75  58  54 E15G21    30.05R
SIDNEY         PTSUNNY   69  55  60 E32G43    30.05R
$$

NEZ057>060-069>072-079>082-020200-
SOUTHWEST NEBRASKA

CITY           SKY/WX    TMP DP  RH WIND       PRES   REMARKS
NORTH PLATTE   MOCLDY    75  63  66 E7        29.94F
IMPERIAL       PTSUNNY   88  50  27 S15       29.97F
LEXINGTON      MOCLDY    80  64  58 S8        29.94F
MCCOOK         CLEAR     88  56  33 S8        29.94F
$$

NEZ005>010-023>029-035>040-094-020200-
NORTH CENTRAL NEBRASKA

CITY           SKY/WX    TMP DP  RH WIND       PRES   REMARKS
VALENTINE      SUNNY     78  59  51 SW10      29.94F
AINSWORTH      CLEAR     78  60  55 SW6       29.95S
BROKEN BOW     CLOUDY    78  60  53 SE3       29.93F
ORD            MOCLDY    76  61  59 S3        29.91F
$$

NEZ041-046>049-061>064-073>077-083>087-020200-
SOUTH CENTRAL NEBRASKA

CITY           SKY/WX    TMP DP  RH WIND       PRES   REMARKS
GRAND ISLAND   MOCLDY    76  67  73 SE3       29.93F
AURORA         MOCLDY    76  72  87 SE3       29.92F
HASTINGS       PTCLDY    81  67  62 S5        29.92F
KEARNEY *      MOCLDY    79  64  61 S6        29.93F
$$

NEZ011>018-030>034-042>045-020200-
NORTHEAST NEBRASKA

CITY           SKY/WX    TMP DP  RH WIND       PRES   REMARKS
NORFOLK        CLEAR     79  66  64 S6        29.90F
ALBION         CLEAR     77  64  63 SE3       29.91F
BLAIR          CLEAR     78  71  77 S5        29.91S
COLUMBUS *     CLEAR     79  64  61 S5        29.90F
TEKAMAH        CLEAR     80  73  79 S5        29.89S
$$

NEZ050>053-065>068-078-088>093-020200-
SOUTHEAST NEBRASKA

CITY           SKY/WX    TMP DP  RH WIND       PRES   REMARKS
LINCOLN        PTCLDY    82  64  54 VRB5      29.91S
OMAHA EPPLEY   PTCLDY    83  70  64 SE9       29.89F
BEATRICE       PTCLDY    83  72  68 CALM      29.91S
FALLS CITY     CLEAR     82  77  84 SE3       29.90F HX  90
NEBRASKA CITY  CLEAR     80  70  70 E3        29.92S
$$

NEZ044-045-051>053-067-020200-
OMAHA AREA

CITY           SKY/WX    TMP DP  RH WIND       PRES   REMARKS
OMAHA EPPLEY   PTCLDY    83  70  64 SE9       29.89F
BLAIR          CLEAR     78  71  77 S5        29.91S
OFFUTT AFB     CLEAR     81  71  72 SE7       29.90S
WAHOO          FAIR      79  69  71 S5        29.90S
$$



USA.gov is the U.S. government's official web portal to all federal, state and local government web resources and services.